{"data":{"norad_id":68738,"epoch":"2026-09-20T01:02:10.111776Z","epoch_age_seconds":80805,"freshness":"FRESH","line1":"1 68738U 26082L   26263.04317259  .00023368  00000+0  72323-3 0  9991","line2":"2 68738  97.2864 125.1715 0001615  89.9133 270.2295 15.33474068 24237","mean_motion":15.33474068,"eccentricity":0.0001615,"inclination_deg":97.2864,"raan_deg":125.1715,"arg_perigee_deg":89.9133,"mean_anomaly_deg":270.2295,"bstar":0.00072323,"rev_number":2423,"period_min":93.904424603547,"perigee_km":464.35144954645,"apogee_km":466.5619303083,"semimajor_km":6843.5936899274,"source":"CELESTRAK","updated_at":"2026-09-20T09:00:43.992431Z"}}